DG7AA-13 Weather Reports


Display with metric or nautical units.
time (UTC)temp
F
wind
direction
speed
MPH
gust
MPH
rain 1hr
in
rain 24hr
in
rain mn
in
humidity
%
barometer
mb
20260906093019 68 147 1.0 2.0 0.00 0.00 0.00 55
20260906092029 68 159 1.0 4.0 0.00 0.00 0.00 56
20260906091019 68 101 0.0 2.0 0.00 0.00 0.00 59
20260906090028 67 128 1.0 2.0 0.00 0.00 0.00 60
20260906085021 67 6 0.0 2.0 0.00 0.00 0.00 65
20260906084027 66 159 1.0 2.0 0.00 0.00 0.00 66
20260906083020 64 192 1.0 3.0 0.00 0.00 0.00 71
20260906082027 63 173 2.0 4.0 0.00 0.00 0.00 73
20260906081019 62 163 1.0 3.0 0.00 0.00 0.00 76
20260906080025 60 158 1.0 4.0 0.00 0.00 0.00 79
20260906075019 58 149 1.0 3.0 0.00 0.00 0.00 85
20260906074027 56 157 1.0 3.0 0.00 0.00 0.00 88
20260906073019 55 161 1.0 4.0 0.00 0.00 0.00 90
20260906072027 54 169 1.0 2.0 0.00 0.00 0.00 91
20260906071022 53 140 1.0 3.0 0.00 0.00 0.00 94
20260906070029 52 153 1.0 3.0 0.00 0.00 0.00 97
20260906065019 51 169 1.0 2.0 0.00 0.00 0.00 98
20260906064027 50 145 0.0 2.0 0.00 0.00 0.00 98
20260906063019 49 177 1.0 2.0 0.00 0.00 0.00 98
20260906062020 47 0.0 0.0 0.00 0.00 0.00 98
20260906061021 47 0.0 0.0 0.00 0.00 0.00 98
20260906060027 46 0.0 0.0 0.00 0.00 0.00 98
20260906055019 45 0.0 0.0 0.00 0.00 0.00 97
20260906054027 44 0.0 0.0 0.00 0.00 0.00 97
20260906053020 44 0.0 0.0 0.00 0.00 0.00 97
20260906052029 44 0.0 0.0 0.00 0.00 0.00 97
20260906051019 44 0.0 0.0 0.00 0.00 0.00 97
20260906050029 44 0.0 0.0 0.00 0.00 0.00 97
20260906045019 44 0.0 0.0 0.00 0.00 0.00 97
20260906044023 43 0.0 0.0 0.00 0.00 0.00 97
20260906043019 44 355 0.0 2.0 0.00 0.00 0.00 96
20260906042028 44 0.0 0.0 0.00 0.00 0.00 97
20260906041019 44 0.0 0.0 0.00 0.00 0.00 96
20260906040031 45 0.0 0.0 0.00 0.00 0.00 96
20260906035019 45 0.0 0.0 0.00 0.00 0.00 96
20260906034027 45 0.0 0.0 0.00 0.00 0.00 96
20260906033019 46 214 0.0 1.0 0.00 0.00 0.00 96
20260906032027 46 0.0 0.0 0.00 0.00 0.00 96
20260906031021 46 0.0 0.0 0.00 0.00 0.00 96
20260906030027 47 0.0 0.0 0.00 0.00 0.00 96
20260906025020 47 0.0 0.0 0.00 0.00 0.00 96
20260906024027 47 0.0 0.0 0.00 0.00 0.00 96
20260906023019 48 158 0.0 2.0 0.00 0.00 0.00 96
20260906022028 48 0.0 0.0 0.00 0.00 0.00 96
20260906021021 48 0.0 0.0 0.00 0.00 0.00 96
20260906020028 48 0.0 0.0 0.00 0.00 0.00 95
20260906015020 48 206 0.0 1.0 0.00 0.00 0.00 95
20260906014021 48 0.0 0.0 0.00 0.00 0.00 95
20260906013019 48 0.0 0.0 0.00 0.00 0.00 95
20260906012028 48 0.0 0.0 0.00 0.00 0.00 94
20260906011020 49 0.0 0.0 0.00 0.00 0.00 94
20260906010024 49 0.0 0.0 0.00 0.00 0.00 94
20260906005019 50 0.0 0.0 0.00 0.00 0.00 94
20260906004027 50 0.0 0.0 0.00 0.00 0.00 93
20260906003019 50 0.0 0.0 0.00 0.00 0.00 93
20260906002029 51 0.0 0.0 0.00 0.00 0.00 93
20260906001023 51 0.0 0.0 0.00 0.00 0.00 92
20260906000030 51 349 0.0 1.0 0.00 0.00 0.00 92
20260905235019 51 141 0.0 1.0 0.00 0.00 0.00 91
20260905234027 52 0.0 0.0 0.00 0.00 0.00 90
20260905233021 52 36 0.0 1.0 0.00 0.00 0.00 89
20260905232020 53 0.0 0.0 0.00 0.00 0.00 89
20260905231102 53 341 1.0 2.0 0.00 0.00 0.00 89
20260905230027 53 0.0 0.0 0.00 0.00 0.00 87
20260905225019 54 353 1.0 2.0 0.00 0.00 0.00 87
20260905224027 55 349 1.0 2.0 0.00 0.00 0.00 85
20260905223019 57 351 2.0 4.0 0.00 0.00 0.00 81
20260905222027 57 338 2.0 5.0 0.00 0.00 0.00 80
20260905221020 57 352 2.0 6.0 0.00 0.00 0.00 81
20260905220027 57 346 1.0 3.0 0.00 0.00 0.00 80
20260905215022 58 340 1.0 2.0 0.00 0.00 0.00 79
20260905214029 58 341 2.0 4.0 0.00 0.00 0.00 79
20260905213019 58 340 1.0 2.0 0.00 0.00 0.00 79
20260905212027 58 344 1.0 3.0 0.00 0.00 0.00 79
20260905211020 57 338 0.0 2.0 0.00 0.00 0.00 81
20260905210029 58 342 0.0 2.0 0.00 0.00 0.00 80
20260905205021 58 330 1.0 3.0 0.00 0.00 0.00 80
20260905204029 58 330 0.0 2.0 0.00 0.00 0.00 79
20260905203019 59 0.0 1.0 0.00 0.00 0.00 76
20260905202020 60 339 1.0 2.0 0.00 0.00 0.00 75
20260905201020 60 355 1.0 2.0 0.00 0.00 0.00 74
20260905200028 61 350 1.0 3.0 0.00 0.00 0.00 73
20260905195019 61 351 2.0 9.0 0.00 0.00 0.00 71
20260905194029 61 341 1.0 4.0 0.00 0.00 0.00 71
20260905193021 61 351 2.0 4.0 0.00 0.00 0.00 70
20260905192027 62 347 1.0 4.0 0.00 0.00 0.00 70
20260905191020 62 343 2.0 8.0 0.00 0.00 0.00 68
20260905190029 62 357 2.0 7.0 0.00 0.00 0.00 68
20260905185019 62 353 2.0 5.0 0.00 0.00 0.00 68
20260905184027 63 350 3.0 7.0 0.00 0.00 0.00 67
20260905183021 63 339 3.0 8.0 0.00 0.00 0.00 67
20260905182029 63 349 2.0 4.0 0.00 0.00 0.00 68
20260905181019 63 348 3.0 6.0 0.00 0.00 0.00 67
20260905180027 63 351 3.0 5.0 0.00 0.00 0.00 66
20260905175019 64 340 3.0 9.0 0.00 0.00 0.00 65
20260905174029 64 1 4.0 9.0 0.00 0.00 0.00 66
20260905173019 64 338 2.0 4.0 0.00 0.00 0.00 67
20260905172029 64 341 2.0 4.0 0.00 0.00 0.00 66
20260905171023 65 343 3.0 6.0 0.00 0.00 0.00 65
20260905170029 65 349 4.0 8.0 0.00 0.00 0.00 63
20260905165019 65 350 4.0 7.0 0.00 0.02 0.00 64
20260905164027 65 338 4.0 10.0 0.00 0.04 0.00 65
20260905163020 65 334 4.0 10.0 0.00 0.06 0.00 66
20260905162021 65 344 3.0 6.0 0.00 0.09 0.00 67
20260905161019 65 343 3.0 7.0 0.00 0.18 0.00 65
20260905160026 66 347 4.0 10.0 0.00 0.21 0.00 64
20260905155019 66 345 5.0 13.0 0.00 0.22 0.00 65
20260905154032 66 344 4.0 10.0 0.00 0.24 0.00 65
20260905153019 65 349 4.0 10.0 0.00 0.24 0.00 65
20260905152028 65 344 4.0 8.0 0.00 0.24 0.00 67
20260905151019 65 342 3.0 7.0 0.00 0.25 0.00 68
20260905150024 65 340 4.0 9.0 0.00 0.26 0.00 69
20260905145021 66 341 3.0 6.0 0.00 0.26 0.00 67
20260905144027 66 346 3.0 10.0 0.00 0.26 0.00 67
20260905143019 66 345 4.0 8.0 0.00 0.26 0.00 65
20260905142028 67 343 4.0 8.0 0.00 0.26 0.00 64
20260905141019 66 352 4.0 7.0 0.00 0.26 0.00 68
20260905140028 65 332 4.0 7.0 0.00 0.26 0.00 72
20260905135019 67 345 4.0 8.0 0.00 0.26 0.00 62
20260905134027 69 341 5.0 11.0 0.00 0.26 0.00 58
20260905133020 68 354 6.0 10.0 0.00 0.26 0.00 59
20260905132027 70 347 3.0 8.0 0.00 0.26 0.00 59
20260905131020 70 343 4.0 9.0 0.00 0.26 0.00 59
20260905130027 71 333 4.0 9.0 0.00 0.26 0.00 55
20260905125019 72 342 3.0 13.0 0.00 0.26 0.00 55
20260905124029 71 343 3.0 12.0 0.00 0.26 0.00 56
20260905123019 71 299 3.0 8.0 0.00 0.26 0.00 55
20260905122027 71 339 3.0 6.0 0.00 0.26 0.00 57
20260905121019 72 345 2.0 7.0 0.00 0.26 0.00 56
20260905120028 71 275 2.0 6.0 0.00 0.26 0.00 57
20260905115021 71 344 2.0 7.0 0.00 0.26 0.00 58
20260905114030 69 357 1.0 4.0 0.00 0.26 0.00 62
20260905113035 67 336 1.0 3.0 0.00 0.26 0.00 64
20260905112031 67 336 3.0 6.0 0.00 0.26 0.00 62
20260905111019 67 34 1.0 4.0 0.00 0.26 0.00 64
20260905110028 68 18 2.0 6.0 0.00 0.26 0.00 61
20260905105019 70 3 2.0 5.0 0.00 0.26 0.00 58
20260905104027 67 114 1.0 5.0 0.00 0.26 0.00 63
20260905103019 66 344 2.0 8.0 0.00 0.26 0.00 63
20260905102028 66 36 1.0 5.0 0.00 0.26 0.00 65
20260905101022 66 325 2.0 5.0 0.00 0.26 0.00 65
20260905100028 67 312 1.0 4.0 0.00 0.26 0.00 64
20260905095020 68 359 2.0 6.0 0.00 0.26 0.00 63
20260905094024 68 350 1.0 4.0 0.00 0.26 0.00 63